Year,Month,Day,Hour,Minute,Value (Times are PST for windgust in km/hr)
2014,04,16,00,17,1.60
2014,04,16,00,33,1.60
2014,04,16,00,34,3.20
2014,04,16,00,35,1.60
2014,04,16,00,46,4.80
2014,04,16,00,47,3.20
2014,04,16,00,50,1.60
2014,04,16,00,51,3.20
2014,04,16,00,52,3.20
2014,04,16,00,53,1.60
2014,04,16,00,54,1.60
2014,04,16,00,55,1.60
2014,04,16,00,56,3.20
2014,04,16,00,57,4.80
2014,04,16,00,58,1.60
2014,04,16,00,59,1.60
2014,04,16,01,00,8.10
2014,04,16,01,01,8.10
2014,04,16,01,02,8.10
2014,04,16,01,03,6.40
2014,04,16,01,04,8.10
2014,04,16,01,05,3.20
2014,04,16,01,06,1.60
2014,04,16,01,07,4.80
2014,04,16,01,08,3.20
2014,04,16,01,09,4.80
2014,04,16,01,10,3.20
2014,04,16,01,11,1.60
2014,04,16,01,16,1.60
2014,04,16,01,19,1.60
2014,04,16,01,20,1.60
2014,04,16,01,28,1.60
2014,04,16,01,34,1.60
2014,04,16,01,49,1.60
2014,04,16,01,51,1.60
2014,04,16,01,53,1.60
2014,04,16,02,10,1.60
2014,04,16,02,15,1.60
2014,04,16,02,17,1.60
2014,04,16,02,18,3.20
2014,04,16,02,20,1.60
2014,04,16,02,28,1.60
2014,04,16,02,33,1.60
2014,04,16,02,35,1.60
2014,04,16,02,36,3.20
2014,04,16,02,37,3.20
2014,04,16,02,38,1.60
2014,04,16,02,41,1.60
2014,04,16,02,42,1.60
2014,04,16,02,52,3.20
2014,04,16,02,53,1.60
2014,04,16,02,59,1.60
2014,04,16,03,01,1.60
2014,04,16,03,02,1.60
2014,04,16,03,03,1.60
2014,04,16,03,04,1.60
2014,04,16,03,05,1.60
2014,04,16,03,07,1.60
2014,04,16,03,08,3.20
2014,04,16,03,09,3.20
2014,04,16,03,10,3.20
2014,04,16,03,11,3.20
2014,04,16,03,12,1.60
2014,04,16,03,14,4.80
2014,04,16,03,15,1.60
2014,04,16,03,16,1.60
2014,04,16,03,17,1.60
2014,04,16,03,19,1.60
2014,04,16,03,20,3.20
2014,04,16,03,21,4.80
2014,04,16,03,25,1.60
2014,04,16,03,27,3.20
2014,04,16,03,28,1.60
2014,04,16,03,29,1.60
2014,04,16,03,30,1.60
2014,04,16,03,32,1.60
2014,04,16,03,34,1.60
2014,04,16,03,35,3.20
2014,04,16,03,36,3.20
2014,04,16,03,37,1.60
2014,04,16,03,38,1.60
2014,04,16,03,39,4.80
2014,04,16,03,40,4.80
2014,04,16,03,41,3.20
2014,04,16,03,42,1.60
2014,04,16,03,43,3.20
2014,04,16,03,44,3.20
2014,04,16,03,45,1.60
2014,04,16,03,47,3.20
2014,04,16,03,48,1.60
2014,04,16,03,49,1.60
2014,04,16,03,50,1.60
2014,04,16,03,51,3.20
2014,04,16,03,52,1.60
2014,04,16,03,53,1.60
2014,04,16,03,54,1.60
2014,04,16,03,55,1.60
2014,04,16,03,56,3.20
2014,04,16,03,57,3.20
2014,04,16,03,58,1.60
2014,04,16,03,59,4.80
2014,04,16,04,00,3.20
2014,04,16,04,01,3.20
2014,04,16,04,02,1.60
2014,04,16,04,04,1.60
2014,04,16,04,05,3.20
2014,04,16,04,06,6.40
2014,04,16,04,07,4.80
2014,04,16,04,09,1.60
2014,04,16,04,10,1.60
2014,04,16,04,11,1.60
2014,04,16,04,13,1.60
2014,04,16,04,14,1.60
2014,04,16,04,15,1.60
2014,04,16,04,16,1.60
2014,04,16,04,20,3.20
2014,04,16,04,21,3.20
2014,04,16,04,22,3.20
2014,04,16,04,23,3.20
2014,04,16,04,24,4.80
2014,04,16,04,25,1.60
2014,04,16,04,26,1.60
2014,04,16,04,28,3.20
2014,04,16,04,30,1.60
2014,04,16,04,31,3.20
2014,04,16,04,32,4.80
2014,04,16,04,33,3.20
2014,04,16,04,34,3.20
2014,04,16,04,35,3.20
2014,04,16,04,36,3.20
2014,04,16,04,37,4.80
2014,04,16,04,38,6.40
2014,04,16,04,39,3.20
2014,04,16,04,40,1.60
2014,04,16,04,42,6.40
2014,04,16,04,43,4.80
2014,04,16,04,44,4.80
2014,04,16,04,45,4.80
2014,04,16,04,46,3.20
2014,04,16,04,47,1.60
2014,04,16,04,48,3.20
2014,04,16,04,49,4.80
2014,04,16,04,50,4.80
2014,04,16,04,51,3.20
2014,04,16,04,52,4.80
2014,04,16,04,53,4.80
2014,04,16,04,54,4.80
2014,04,16,04,55,4.80
2014,04,16,04,56,6.40
2014,04,16,04,57,4.80
2014,04,16,04,58,6.40
2014,04,16,04,59,6.40
2014,04,16,05,00,4.80
2014,04,16,05,01,1.60
2014,04,16,05,02,3.20
2014,04,16,05,03,4.80
2014,04,16,05,04,4.80
2014,04,16,05,05,4.80
2014,04,16,05,06,3.20
2014,04,16,05,08,4.80
2014,04,16,05,09,8.10
2014,04,16,05,10,6.40
2014,04,16,05,11,3.20
2014,04,16,05,12,1.60
2014,04,16,05,13,3.20
2014,04,16,05,14,3.20
2014,04,16,05,15,3.20
2014,04,16,05,16,6.40
2014,04,16,05,17,8.10
2014,04,16,05,18,8.10
2014,04,16,05,19,4.80
2014,04,16,05,20,1.60
2014,04,16,05,21,6.40
2014,04,16,05,22,8.10
2014,04,16,05,23,4.80
2014,04,16,05,24,3.20
2014,04,16,05,25,3.20
2014,04,16,05,26,1.60
2014,04,16,05,27,4.80
2014,04,16,05,28,1.60
2014,04,16,05,29,3.20
2014,04,16,05,30,6.40
2014,04,16,05,31,8.10
2014,04,16,05,32,6.40
2014,04,16,05,33,11.30
2014,04,16,05,34,8.10
2014,04,16,05,35,6.40
2014,04,16,05,36,6.40
2014,04,16,05,37,6.40
2014,04,16,05,38,6.40
2014,04,16,05,39,6.40
2014,04,16,05,40,4.80
2014,04,16,05,41,6.40
2014,04,16,05,42,8.10
2014,04,16,05,43,4.80
2014,04,16,05,44,3.20
2014,04,16,05,45,8.10
2014,04,16,05,46,6.40
2014,04,16,05,47,6.40
2014,04,16,05,48,9.60
2014,04,16,05,49,9.60
2014,04,16,05,50,8.10
2014,04,16,05,51,6.40
2014,04,16,05,52,6.40
2014,04,16,05,53,4.80
2014,04,16,05,54,8.10
2014,04,16,05,55,6.40
2014,04,16,05,56,4.80
2014,04,16,05,57,9.60
2014,04,16,05,58,8.10
2014,04,16,05,59,6.40
2014,04,16,06,00,4.80
2014,04,16,06,01,3.20
2014,04,16,06,02,3.20
2014,04,16,06,03,1.60
2014,04,16,06,04,1.60
2014,04,16,06,05,3.20
2014,04,16,06,06,4.80
2014,04,16,06,07,6.40
2014,04,16,06,08,6.40
2014,04,16,06,09,8.10
2014,04,16,06,10,6.40
2014,04,16,06,11,4.80
2014,04,16,06,12,4.80
2014,04,16,06,13,1.60
2014,04,16,06,14,4.80
2014,04,16,06,15,3.20
2014,04,16,06,16,1.60
2014,04,16,06,17,1.60
2014,04,16,06,18,3.20
2014,04,16,06,19,1.60
2014,04,16,06,20,1.60
2014,04,16,06,21,3.20
2014,04,16,06,22,4.80
2014,04,16,06,23,3.20
2014,04,16,06,24,3.20
2014,04,16,06,25,3.20
2014,04,16,06,26,4.80
2014,04,16,06,27,1.60
2014,04,16,06,28,4.80
2014,04,16,06,29,1.60
2014,04,16,06,30,4.80
2014,04,16,06,31,3.20
2014,04,16,06,32,3.20
2014,04,16,06,33,3.20
2014,04,16,06,34,6.40
2014,04,16,06,35,8.10
2014,04,16,06,36,6.40
2014,04,16,06,37,4.80
2014,04,16,06,38,6.40
2014,04,16,06,39,4.80
2014,04,16,06,40,6.40
2014,04,16,06,41,8.10
2014,04,16,06,42,6.40
2014,04,16,06,43,6.40
2014,04,16,06,44,8.10
2014,04,16,06,45,4.80
2014,04,16,06,46,1.60
2014,04,16,06,47,3.20
2014,04,16,06,48,1.60
2014,04,16,06,49,3.20
2014,04,16,06,50,1.60
2014,04,16,06,51,3.20
2014,04,16,06,52,1.60
2014,04,16,06,53,1.60
2014,04,16,06,56,1.60
2014,04,16,06,58,1.60
2014,04,16,06,59,1.60
2014,04,16,07,00,1.60
2014,04,16,07,01,1.60
2014,04,16,07,02,1.60
2014,04,16,07,04,3.20
2014,04,16,07,05,3.20
2014,04,16,07,06,3.20
2014,04,16,07,07,3.20
2014,04,16,07,08,4.80
2014,04,16,07,09,3.20
2014,04,16,07,10,3.20
2014,04,16,07,11,1.60
2014,04,16,07,12,1.60
2014,04,16,07,14,1.60
2014,04,16,07,15,3.20
2014,04,16,07,16,1.60
2014,04,16,07,19,1.60
2014,04,16,07,20,1.60
2014,04,16,07,23,3.20
2014,04,16,07,24,3.20
2014,04,16,07,25,4.80
2014,04,16,07,26,3.20
2014,04,16,07,27,3.20
2014,04,16,07,28,3.20
2014,04,16,07,30,1.60
2014,04,16,07,31,1.60
2014,04,16,07,35,4.80
2014,04,16,07,36,1.60
2014,04,16,07,37,3.20
2014,04,16,07,38,1.60
2014,04,16,07,50,1.60
2014,04,16,07,59,3.20
2014,04,16,08,00,3.20
2014,04,16,08,04,1.60
2014,04,16,08,05,4.80
2014,04,16,08,06,3.20
2014,04,16,08,07,3.20
2014,04,16,08,08,1.60
2014,04,16,08,10,3.20
2014,04,16,08,11,1.60
2014,04,16,08,14,3.20
2014,04,16,08,15,6.40
2014,04,16,08,16,1.60
2014,04,16,08,17,1.60
2014,04,16,08,18,1.60
2014,04,16,08,19,1.60
2014,04,16,08,20,1.60
2014,04,16,08,21,3.20
2014,04,16,08,22,1.60
2014,04,16,08,23,1.60
2014,04,16,08,24,1.60
2014,04,16,08,26,1.60
2014,04,16,08,28,3.20
2014,04,16,08,29,1.60
2014,04,16,08,30,1.60
2014,04,16,08,31,1.60
2014,04,16,08,32,1.60
2014,04,16,08,33,4.80
2014,04,16,08,34,4.80
2014,04,16,08,35,4.80
2014,04,16,08,36,3.20
2014,04,16,08,37,4.80
2014,04,16,08,38,3.20
2014,04,16,08,39,1.60
2014,04,16,08,40,4.80
2014,04,16,08,41,1.60
2014,04,16,08,42,1.60
2014,04,16,08,44,1.60
2014,04,16,08,45,1.60
2014,04,16,08,50,4.80
2014,04,16,08,51,4.80
2014,04,16,08,52,3.20
2014,04,16,08,53,6.40
2014,04,16,08,54,4.80
2014,04,16,08,55,1.60
2014,04,16,08,56,4.80
2014,04,16,08,57,4.80
2014,04,16,08,59,1.60
2014,04,16,09,00,3.20
2014,04,16,09,01,4.80
2014,04,16,09,05,1.60
2014,04,16,09,07,3.20
2014,04,16,09,08,4.80
2014,04,16,09,09,1.60
2014,04,16,09,11,3.20
2014,04,16,09,12,3.20
2014,04,16,09,13,3.20
2014,04,16,09,14,6.40
2014,04,16,09,15,4.80
2014,04,16,09,16,3.20
2014,04,16,09,17,4.80
2014,04,16,09,18,1.60
2014,04,16,09,19,1.60
2014,04,16,09,20,4.80
2014,04,16,09,21,6.40
2014,04,16,09,22,8.10
2014,04,16,09,23,6.40
2014,04,16,09,24,6.40
2014,04,16,09,25,6.40
2014,04,16,09,26,6.40
2014,04,16,09,27,4.80
2014,04,16,09,28,6.40
2014,04,16,09,29,6.40
2014,04,16,09,30,3.20
2014,04,16,09,31,3.20
2014,04,16,09,32,3.20
2014,04,16,09,33,4.80
2014,04,16,09,34,4.80
2014,04,16,09,35,3.20
2014,04,16,09,37,1.60
2014,04,16,09,38,3.20
2014,04,16,09,39,6.40
2014,04,16,09,40,8.10
2014,04,16,09,41,6.40
2014,04,16,09,42,8.10
2014,04,16,09,43,3.20
2014,04,16,09,44,4.80
2014,04,16,09,45,1.60
2014,04,16,09,46,1.60
2014,04,16,09,47,1.60
2014,04,16,09,48,4.80
2014,04,16,09,49,6.40
2014,04,16,09,50,6.40
2014,04,16,09,51,8.10
2014,04,16,09,52,8.10
2014,04,16,09,53,8.10
2014,04,16,09,54,8.10
2014,04,16,09,55,6.40
2014,04,16,09,56,6.40
2014,04,16,09,57,6.40
2014,04,16,09,58,6.40
2014,04,16,09,59,4.80
2014,04,16,10,00,8.10
2014,04,16,10,01,6.40
2014,04,16,10,02,8.10
2014,04,16,10,03,6.40
2014,04,16,10,04,8.10
2014,04,16,10,05,6.40
2014,04,16,10,06,6.40
2014,04,16,10,07,4.80
2014,04,16,10,08,4.80
2014,04,16,10,09,4.80
2014,04,16,10,10,6.40
2014,04,16,10,11,8.10
2014,04,16,10,12,8.10
2014,04,16,10,13,3.20
2014,04,16,10,14,6.40
2014,04,16,10,15,4.80
2014,04,16,10,16,1.60
2014,04,16,10,17,4.80
2014,04,16,10,18,3.20
2014,04,16,10,19,4.80
2014,04,16,10,20,4.80
2014,04,16,10,21,4.80
2014,04,16,10,22,4.80
2014,04,16,10,24,1.60
2014,04,16,10,27,3.20
2014,04,16,10,28,3.20
2014,04,16,10,29,1.60
2014,04,16,10,30,1.60
2014,04,16,10,31,1.60
2014,04,16,10,33,1.60
2014,04,16,10,35,1.60
2014,04,16,10,36,1.60
2014,04,16,10,37,1.60
2014,04,16,10,38,1.60
2014,04,16,10,39,3.20
2014,04,16,10,40,1.60
2014,04,16,10,41,3.20
2014,04,16,10,42,1.60
2014,04,16,10,43,3.20
2014,04,16,10,44,4.80
2014,04,16,10,45,4.80
2014,04,16,10,46,6.40
2014,04,16,10,47,6.40
2014,04,16,10,48,4.80
2014,04,16,10,49,4.80
2014,04,16,10,50,6.40
2014,04,16,10,51,4.80
2014,04,16,10,52,3.20
2014,04,16,10,53,3.20
2014,04,16,10,54,4.80
2014,04,16,10,55,8.10
2014,04,16,10,56,8.10
2014,04,16,10,57,6.40
2014,04,16,10,58,8.10
2014,04,16,10,59,3.20
2014,04,16,11,00,1.60
2014,04,16,11,01,3.20
2014,04,16,11,02,8.10
2014,04,16,11,03,8.10
2014,04,16,11,04,9.60
2014,04,16,11,05,6.40
2014,04,16,11,06,4.80
2014,04,16,11,07,8.10
2014,04,16,11,08,8.10
2014,04,16,11,09,9.60
2014,04,16,11,10,8.10
2014,04,16,11,11,1.60
2014,04,16,11,12,8.10
2014,04,16,11,13,9.60
2014,04,16,11,14,9.60
2014,04,16,11,15,8.10
2014,04,16,11,16,9.60
2014,04,16,11,17,8.10
2014,04,16,11,18,6.40
2014,04,16,11,19,1.60
2014,04,16,11,20,6.40
2014,04,16,11,21,4.80
2014,04,16,11,22,8.10
2014,04,16,11,23,4.80
2014,04,16,11,24,3.20
2014,04,16,11,25,8.10
2014,04,16,11,26,3.20
2014,04,16,11,27,11.30
2014,04,16,11,28,9.60
2014,04,16,11,29,9.60
2014,04,16,11,30,8.10
2014,04,16,11,31,6.40
2014,04,16,11,32,6.40
2014,04,16,11,33,6.40
2014,04,16,11,34,4.80
2014,04,16,11,35,3.20
2014,04,16,11,36,6.40
2014,04,16,11,37,4.80
2014,04,16,11,38,4.80
2014,04,16,11,39,6.40
2014,04,16,11,40,9.60
2014,04,16,11,41,9.60
2014,04,16,11,42,8.10
2014,04,16,11,43,11.30
2014,04,16,11,44,20.90
2014,04,16,11,45,16.10
2014,04,16,11,46,8.10
2014,04,16,11,47,8.10
2014,04,16,11,48,4.80
2014,04,16,11,49,6.40
2014,04,16,11,50,11.30
2014,04,16,11,51,12.90
2014,04,16,11,52,9.60
2014,04,16,11,53,8.10
2014,04,16,11,54,8.10
2014,04,16,11,55,4.80
2014,04,16,11,56,4.80
2014,04,16,11,57,6.40
2014,04,16,11,58,11.30
2014,04,16,11,59,4.80
2014,04,16,12,00,4.80
2014,04,16,12,01,6.40
2014,04,16,12,02,4.80
2014,04,16,12,03,1.60
2014,04,16,12,04,4.80
2014,04,16,12,05,4.80
2014,04,16,12,06,8.10
2014,04,16,12,07,6.40
2014,04,16,12,08,3.20
2014,04,16,12,09,1.60
2014,04,16,12,10,3.20
2014,04,16,12,11,3.20
2014,04,16,12,12,4.80
2014,04,16,12,13,3.20
2014,04,16,12,14,4.80
2014,04,16,12,15,4.80
2014,04,16,12,16,4.80
2014,04,16,12,17,4.80
2014,04,16,12,18,8.10
2014,04,16,12,19,11.30
2014,04,16,12,20,8.10
2014,04,16,12,21,6.40
2014,04,16,12,22,8.10
2014,04,16,12,23,6.40
2014,04,16,12,24,6.40
2014,04,16,12,25,4.80
2014,04,16,12,26,3.20
2014,04,16,12,27,4.80
2014,04,16,12,28,1.60
2014,04,16,12,29,1.60
2014,04,16,12,30,3.20
2014,04,16,12,31,4.80
2014,04,16,12,32,3.20
2014,04,16,12,33,3.20
2014,04,16,12,34,4.80
2014,04,16,12,35,3.20
2014,04,16,12,36,6.40
2014,04,16,12,37,6.40
2014,04,16,12,38,8.10
2014,04,16,12,39,6.40
2014,04,16,12,40,6.40
2014,04,16,12,41,6.40
2014,04,16,12,42,8.10
2014,04,16,12,43,4.80
2014,04,16,12,44,6.40
2014,04,16,12,45,4.80
2014,04,16,12,46,6.40
2014,04,16,12,47,4.80
2014,04,16,12,48,4.80
2014,04,16,12,49,4.80
2014,04,16,12,50,1.60
2014,04,16,12,51,3.20
2014,04,16,12,52,4.80
2014,04,16,12,53,1.60
2014,04,16,12,55,1.60
2014,04,16,12,56,6.40
2014,04,16,12,57,4.80
2014,04,16,12,58,1.60
2014,04,16,12,59,6.40
2014,04,16,13,00,4.80
2014,04,16,13,01,3.20
2014,04,16,13,02,3.20
2014,04,16,13,03,1.60
2014,04,16,13,04,1.60
2014,04,16,13,05,3.20
2014,04,16,13,06,4.80
2014,04,16,13,07,4.80
2014,04,16,13,08,4.80
2014,04,16,13,09,3.20
2014,04,16,13,11,1.60
2014,04,16,13,12,3.20
2014,04,16,13,13,1.60
2014,04,16,13,16,3.20
2014,04,16,13,17,4.80
2014,04,16,13,18,3.20
2014,04,16,13,19,3.20
2014,04,16,13,21,1.60
2014,04,16,13,22,1.60
2014,04,16,13,23,3.20
2014,04,16,13,24,3.20
2014,04,16,13,25,3.20
2014,04,16,13,26,4.80
2014,04,16,13,27,4.80
2014,04,16,13,28,3.20
2014,04,16,13,29,4.80
2014,04,16,13,30,3.20
2014,04,16,13,31,1.60
2014,04,16,13,32,3.20
2014,04,16,13,33,1.60
2014,04,16,13,34,1.60
2014,04,16,13,36,1.60
2014,04,16,13,37,1.60
2014,04,16,13,38,1.60
2014,04,16,13,40,1.60
2014,04,16,13,41,1.60
2014,04,16,13,42,4.80
2014,04,16,13,43,3.20
2014,04,16,13,44,1.60
2014,04,16,13,46,1.60
2014,04,16,13,47,1.60
2014,04,16,13,49,1.60
2014,04,16,13,52,1.60
2014,04,16,13,54,3.20
2014,04,16,13,55,3.20
2014,04,16,13,57,3.20
2014,04,16,13,58,4.80
2014,04,16,13,59,1.60
2014,04,16,14,00,1.60
2014,04,16,14,01,1.60
2014,04,16,14,02,1.60
2014,04,16,14,03,4.80
2014,04,16,14,04,4.80
2014,04,16,14,05,6.40
2014,04,16,14,06,6.40
2014,04,16,14,07,3.20
2014,04,16,14,08,4.80
2014,04,16,14,09,1.60
2014,04,16,14,10,4.80
2014,04,16,14,11,6.40
2014,04,16,14,12,8.10
2014,04,16,14,13,9.60
2014,04,16,14,14,6.40
2014,04,16,14,15,6.40
2014,04,16,14,16,6.40
2014,04,16,14,17,6.40
2014,04,16,14,18,4.80
2014,04,16,14,19,6.40
2014,04,16,14,20,3.20
2014,04,16,14,21,1.60
2014,04,16,14,22,4.80
2014,04,16,14,23,3.20
2014,04,16,14,24,3.20
2014,04,16,14,25,1.60
2014,04,16,14,26,6.40
2014,04,16,14,27,8.10
2014,04,16,14,28,6.40
2014,04,16,14,29,6.40
2014,04,16,14,30,6.40
2014,04,16,14,31,4.80
2014,04,16,14,32,4.80
2014,04,16,14,33,1.60
2014,04,16,14,34,1.60
2014,04,16,14,35,4.80
2014,04,16,14,36,6.40
2014,04,16,14,37,6.40
2014,04,16,14,38,6.40
2014,04,16,14,39,6.40
2014,04,16,14,40,6.40
2014,04,16,14,41,6.40
2014,04,16,14,42,4.80
2014,04,16,14,43,3.20
2014,04,16,14,44,3.20
2014,04,16,14,45,4.80
2014,04,16,14,46,6.40
2014,04,16,14,47,4.80
2014,04,16,14,48,3.20
2014,04,16,14,49,4.80
2014,04,16,14,50,1.60
2014,04,16,14,51,3.20
2014,04,16,14,52,4.80
2014,04,16,14,53,4.80
2014,04,16,14,54,6.40
2014,04,16,14,55,1.60
2014,04,16,14,56,1.60
2014,04,16,14,57,1.60
2014,04,16,14,58,1.60
2014,04,16,14,59,1.60
2014,04,16,15,00,4.80
2014,04,16,15,01,4.80
2014,04,16,15,02,3.20
2014,04,16,15,03,4.80
2014,04,16,15,04,3.20
2014,04,16,15,05,1.60
2014,04,16,15,06,3.20
2014,04,16,15,07,3.20
2014,04,16,15,08,6.40
2014,04,16,15,09,6.40
2014,04,16,15,10,3.20
2014,04,16,15,11,1.60
2014,04,16,15,12,1.60
2014,04,16,15,13,3.20
2014,04,16,15,14,4.80
2014,04,16,15,15,1.60
2014,04,16,15,16,1.60
2014,04,16,15,17,3.20
2014,04,16,15,18,4.80
2014,04,16,15,19,1.60
2014,04,16,15,20,1.60
2014,04,16,15,21,1.60
2014,04,16,15,22,3.20
2014,04,16,15,23,1.60
2014,04,16,15,24,3.20
2014,04,16,15,25,3.20
2014,04,16,15,26,1.60
2014,04,16,15,28,1.60
2014,04,16,15,29,3.20
2014,04,16,15,30,3.20
2014,04,16,15,31,3.20
2014,04,16,15,32,4.80
2014,04,16,15,33,4.80
2014,04,16,15,34,1.60
2014,04,16,15,35,3.20
2014,04,16,15,36,3.20
2014,04,16,15,37,6.40
2014,04,16,15,38,6.40
2014,04,16,15,39,1.60
2014,04,16,15,40,3.20
2014,04,16,15,41,1.60
2014,04,16,15,42,1.60
2014,04,16,15,43,3.20
2014,04,16,15,44,4.80
2014,04,16,15,45,4.80
2014,04,16,15,46,4.80
2014,04,16,15,47,4.80
2014,04,16,15,48,1.60
2014,04,16,15,49,1.60
2014,04,16,15,50,4.80
2014,04,16,15,51,3.20
2014,04,16,15,52,1.60
2014,04,16,15,55,4.80
2014,04,16,15,56,4.80
2014,04,16,15,57,6.40
2014,04,16,15,58,3.20
2014,04,16,15,59,4.80
2014,04,16,16,00,1.60
2014,04,16,16,02,1.60
2014,04,16,16,03,1.60
2014,04,16,16,07,4.80
2014,04,16,16,08,1.60
2014,04,16,16,10,1.60
2014,04,16,16,11,1.60
2014,04,16,16,12,1.60
2014,04,16,16,13,3.20
2014,04,16,16,14,1.60
2014,04,16,16,16,1.60
2014,04,16,16,17,1.60
2014,04,16,16,18,4.80
2014,04,16,16,19,3.20
2014,04,16,16,21,1.60
2014,04,16,16,22,3.20
2014,04,16,16,23,1.60
2014,04,16,16,25,1.60
2014,04,16,16,27,1.60
2014,04,16,16,28,3.20
2014,04,16,16,29,3.20
2014,04,16,16,30,3.20
2014,04,16,16,31,3.20
2014,04,16,16,32,4.80
2014,04,16,16,33,3.20
2014,04,16,16,34,1.60
2014,04,16,16,35,3.20
2014,04,16,16,36,1.60
2014,04,16,16,37,1.60
2014,04,16,17,01,1.60
2014,04,16,17,04,1.60
2014,04,16,17,09,1.60
2014,04,16,17,11,1.60
2014,04,16,17,17,1.60
2014,04,16,17,21,1.60
2014,04,16,17,22,1.60
2014,04,16,17,23,1.60
2014,04,16,17,24,1.60
2014,04,16,17,34,1.60
2014,04,16,17,44,1.60
2014,04,16,18,01,1.60
2014,04,16,18,02,1.60
2014,04,16,18,04,1.60
2014,04,16,18,05,1.60
2014,04,16,18,07,1.60
2014,04,16,18,08,1.60
2014,04,16,18,11,1.60
2014,04,16,18,14,1.60
2014,04,16,18,16,1.60
2014,04,16,18,18,1.60
2014,04,16,18,23,1.60
2014,04,16,18,39,1.60
2014,04,16,18,41,1.60
2014,04,16,18,42,1.60
2014,04,16,21,05,1.60
2014,04,16,22,06,1.60
2014,04,16,22,07,1.60
2014,04,16,22,08,1.60
2014,04,16,22,09,1.60
2014,04,16,22,44,1.60
2014,04,16,23,03,1.60
2014,04,16,23,22,1.60
2014,04,16,23,30,1.60
2014,04,16,23,31,1.60
2014,04,16,23,48,1.60
2014,04,16,23,49,1.60
2014,04,16,23,51,1.60
2014,04,16,23,52,1.60
2014,04,16,23,53,1.60
2014,04,16,23,54,1.60
